When you browse on this site, cookies collect data to enhance your experience and personalize the content and advertising you see.
Visit our Privacy Policy to learn more. By continuing to use the site, you agree to this use of cookies and data.
  • In Lithuania
  • List of Countries
  • For 7 days
  • Water Temperature
  • Satellite Maps
  • Weather Map
  • Weather Widgets
  • user-avatar
    Login

    Hourly Weather Biskira

    Today, 21 February, Thursday

    Time Temperature Precipitation Wind Pressure Humidity
    00:00 +16°C° 0 mm 2 mps 758 mmHg 33%
    01:00 +15°C° 0 mm 1 mps 758 mmHg 38%
    02:00 +14°C° 0 mm 1 mps 758 mmHg 43%
    03:00 +12°C° 0 mm 0 mps 759 mmHg 48%
    04:00 +13°C° 0 mm 1 mps 759 mmHg 49%
    05:00 +13°C° 0 mm 1 mps 759 mmHg 50%
    06:00 +12°C° 0 mm 1 mps 759 mmHg 51%
    07:00 +14°C° 0 mm 1 mps 760 mmHg 46%
    08:00 +16°C° 0 mm 1 mps 760 mmHg 41%
    09:00 +18°C° 0 mm 1 mps 760 mmHg 37%
    10:00 +18°C° 0 mm 2 mps 760 mmHg 35%
    11:00 +19°C° 0 mm 2 mps 760 mmHg 33%
    12:00 +20°C° 0 mm 3 mps 760 mmHg 32%
    13:00 +20°C° 0 mm 3 mps 760 mmHg 31%
    14:00 +21°C° 0 mm 3 mps 759 mmHg 29%
    15:00 +21°C° 0 mm 3 mps 759 mmHg 28%
    16:00 +20°C° 0 mm 3 mps 759 mmHg 30%
    17:00 +20°C° 0 mm 3 mps 759 mmHg 32%
    18:00 +19°C° 0 mm 2 mps 760 mmHg 34%
    19:00 +18°C° 0 mm 2 mps 760 mmHg 36%
    20:00 +18°C° 0 mm 2 mps 761 mmHg 39%
    21:00 +18°C° 0 mm 1 mps 761 mmHg 41%
    22:00 +16°C° 0 mm 1 mps 761 mmHg 42%
    23:00 +16°C° 0 mm 1 mps 761 mmHg 44%

    Tomorrow, 22 February, Friday

    Time Temperature Precipitation Wind Pressure Humidity
    00:00 +15°C° 0 mm 1 mps 762 mmHg 45%
    01:00 +15°C° 0 mm 1 mps 762 mmHg 46%
    02:00 +15°C° 0 mm 2 mps 761 mmHg 47%
    03:00 +14°C° 0 mm 2 mps 761 mmHg 48%
    04:00 +14°C° 0 mm 2 mps 761 mmHg 50%
    05:00 +13°C° 0 mm 2 mps 761 mmHg 52%
    06:00 +11°C° 0 mm 3 mps 761 mmHg 54%
    07:00 +13°C° 0 mm 2 mps 762 mmHg 51%
    08:00 +14°C° 0 mm 2 mps 762 mmHg 48%
    09:00 +15°C° 0 mm 2 mps 762 mmHg 46%
    10:00 +16°C° 0 mm 2 mps 762 mmHg 44%
    11:00 +18°C° 0 mm 1 mps 761 mmHg 42%
    12:00 +19°C° 0 mm 1 mps 761 mmHg 40%
    13:00 +19°C° 0 mm 2 mps 760 mmHg 36%
    14:00 +20°C° 0 mm 2 mps 759 mmHg 31%
    15:00 +21°C° 0 mm 3 mps 759 mmHg 27%
    16:00 +20°C° 0 mm 3 mps 759 mmHg 27%
    17:00 +19°C° 0 mm 3 mps 759 mmHg 26%
    18:00 +19°C° 0 mm 3 mps 759 mmHg 26%
    19:00 +18°C° 0 mm 3 mps 759 mmHg 27%
    20:00 +17°C° 0 mm 2 mps 759 mmHg 28%
    21:00 +16°C° 0 mm 2 mps 760 mmHg 29%
    22:00 +16°C° 0 mm 2 mps 760 mmHg 31%
    23:00 +15°C° 0 mm 2 mps 759 mmHg 34%

    Day after tomorrow, 23 February, Saturday

    Time Temperature Precipitation Wind Pressure Humidity
    00:00 +14°C° 0 mm 3 mps 759 mmHg 37%
    01:00 +13°C° 0 mm 3 mps 759 mmHg 37%
    02:00 +13°C° 0 mm 3 mps 759 mmHg 37%
    03:00 +13°C° 0 mm 3 mps 759 mmHg 37%
    04:00 +12°C° 0 mm 3 mps 759 mmHg 37%
    05:00 +12°C° 0 mm 3 mps 759 mmHg 37%
    06:00 +11°C° 0 mm 3 mps 759 mmHg 36%
    07:00 +14°C° 0 mm 2 mps 760 mmHg 33%
    08:00 +15°C° 0 mm 2 mps 760 mmHg 30%
    09:00 +16°C° 0 mm 2 mps 760 mmHg 28%
    10:00 +17°C° 0 mm 2 mps 760 mmHg 26%
    11:00 +19°C° 0 mm 3 mps 760 mmHg 24%
    12:00 +20°C° 0 mm 3 mps 759 mmHg 22%
    13:00 +20°C° 0 mm 4 mps 759 mmHg 21%
    14:00 +21°C° 0 mm 4 mps 759 mmHg 20%
    15:00 +22°C° 0 mm 5 mps 758 mmHg 19%
    16:00 +21°C° 0 mm 5 mps 758 mmHg 22%
    17:00 +20°C° 0 mm 5 mps 758 mmHg 25%
    18:00 +19°C° 0 mm 5 mps 759 mmHg 28%
    19:00 +18°C° 0 mm 4 mps 759 mmHg 31%
    20:00 +17°C° 0 mm 4 mps 760 mmHg 35%
    21:00 +16°C° 0 mm 3 mps 760 mmHg 39%
    22:00 +14°C° 0 mm 3 mps 760 mmHg 40%
    23:00 +13°C° 0 mm 4 mps 760 mmHg 42%

    24 February, Sunday

    Time Temperature Precipitation Wind Pressure Humidity
    00:00 +13°C° 0 mm 4 mps 760 mmHg 44%
    01:00 +13°C° 0 mm 4 mps 760 mmHg 44%
    02:00 +12°C° 0 mm 4 mps 760 mmHg 44%
    03:00 +12°C° 0 mm 4 mps 759 mmHg 45%
    04:00 +12°C° 0 mm 4 mps 759 mmHg 46%
    05:00 +11°C° 0 mm 4 mps 759 mmHg 47%
    06:00 +11°C° 0 mm 4 mps 759 mmHg 48%
    07:00 +13°C° 0 mm 5 mps 760 mmHg 43%
    08:00 +14°C° 0 mm 6 mps 760 mmHg 38%
    09:00 +16°C° 0 mm 6 mps 760 mmHg 33%
    10:00 +17°C° 0 mm 7 mps 760 mmHg 28%
    11:00 +20°C° 0 mm 8 mps 760 mmHg 23%
    12:00 +21°C° 0 mm 8 mps 760 mmHg 18%
    13:00 +21°C° 0 mm 8 mps 759 mmHg 18%
    14:00 +21°C° 0 mm 8 mps 759 mmHg 18%
    15:00 +21°C° 0 mm 8 mps 759 mmHg 18%
    16:00 +20°C° 0 mm 7 mps 759 mmHg 21%
    17:00 +17°C° 0 mm 6 mps 760 mmHg 24%
    18:00 +16°C° 0 mm 5 mps 760 mmHg 28%
    19:00 +15°C° 0 mm 4 mps 761 mmHg 31%
    20:00 +14°C° 0 mm 4 mps 762 mmHg 34%
    21:00 +12°C° 0 mm 4 mps 763 mmHg 38%
    22:00 +12°C° 0 mm 4 mps 763 mmHg 40%
    23:00 +11°C° 0 mm 4 mps 763 mmHg 42%

    25 February, Monday

    Time Temperature Precipitation Wind Pressure Humidity
    00:00 +11°C° 0 mm 4 mps 763 mmHg 44%
    01:00 +10°C° 0 mm 4 mps 763 mmHg 46%
    02:00 +10°C° 0 mm 4 mps 763 mmHg 48%
    03:00 +8°C° 0 mm 4 mps 763 mmHg 50%
    04:00 +8°C° 0 mm 4 mps 763 mmHg 52%
    05:00 +7°C° 0 mm 4 mps 763 mmHg 53%
    06:00 +7°C° 0 mm 4 mps 763 mmHg 54%
    07:00 +10°C° 0 mm 4 mps 763 mmHg 50%
    08:00 +11°C° 0 mm 4 mps 763 mmHg 46%
    09:00 +12°C° 0 mm 5 mps 763 mmHg 42%
    10:00 +14°C° 0 mm 4 mps 763 mmHg 37%
    11:00 +16°C° 0 mm 3 mps 763 mmHg 32%
    12:00 +17°C° 0 mm 2 mps 762 mmHg 27%
    13:00 +18°C° 0 mm 2 mps 762 mmHg 26%
    14:00 +18°C° 0 mm 3 mps 761 mmHg 25%
    15:00 +19°C° 0 mm 3 mps 761 mmHg 24%
    16:00 +18°C° 0 mm 3 mps 761 mmHg 27%
    17:00 +17°C° 0 mm 3 mps 761 mmHg 29%
    18:00 +16°C° 0 mm 2 mps 761 mmHg 31%
    19:00 +15°C° 0 mm 2 mps 762 mmHg 33%
    20:00 +14°C° 0 mm 2 mps 762 mmHg 35%
    21:00 +14°C° 0 mm 1 mps 762 mmHg 37%
    22:00 +13°C° 0 mm 1 mps 762 mmHg 39%
    23:00 +12°C° 0 mm 1 mps 762 mmHg 40%

    26 February, Tuesday

    Time Temperature Precipitation Wind Pressure Humidity
    00:00 +12°C° 0 mm 1 mps 762 mmHg 42%
    01:00 +12°C° 0 mm 1 mps 762 mmHg 43%
    02:00 +11°C° 0 mm 1 mps 762 mmHg 43%
    03:00 +11°C° 0 mm 1 mps 761 mmHg 44%
    04:00 +11°C° 0 mm 1 mps 761 mmHg 44%
    05:00 +10°C° 0 mm 1 mps 761 mmHg 43%
    06:00 +10°C° 0 mm 1 mps 761 mmHg 43%
    07:00 +12°C° 0 mm 1 mps 761 mmHg 39%
    08:00 +13°C° 0 mm 1 mps 762 mmHg 35%
    09:00 +15°C° 0 mm 1 mps 762 mmHg 31%
    10:00 +18°C° 0 mm 1 mps 761 mmHg 29%
    11:00 +18°C° 0 mm 2 mps 761 mmHg 27%
    12:00 +20°C° 0 mm 2 mps 760 mmHg 25%
    13:00 +21°C° 0 mm 2 mps 760 mmHg 22%
    14:00 +23°C° 0 mm 2 mps 759 mmHg 20%
    15:00 +24°C° 0 mm 3 mps 759 mmHg 18%
    16:00 +21°C° 0 mm 2 mps 759 mmHg 20%
    17:00 +20°C° 0 mm 2 mps 759 mmHg 22%
    18:00 +19°C° 0 mm 2 mps 759 mmHg 24%
    19:00 +18°C° 0 mm 2 mps 760 mmHg 26%
    20:00 +18°C° 0 mm 2 mps 760 mmHg 28%
    21:00 +17°C° 0 mm 2 mps 761 mmHg 30%
    22:00 +16°C° 0 mm 2 mps 760 mmHg 30%
    23:00 +16°C° 0 mm 2 mps 760 mmHg 31%
    Show more